OPS 1127 (DMSP 4B F3)

导读

OPS 1127又名DMSP 4B F3,是美国国防气象卫星计划(DMSP)下的一颗军事气象卫星,于1969年7月23日发射升空。作为DMSP 4B系列的第三颗卫星,它运行在近地太阳同步轨道,核心任务是获取全球云层分布、大气温湿度等气象数据,可为军事行动规划提供关键气象支持,也服务于天气预报与环境监测,是早期军用气象卫星体系的重要组成部分。

基本信息
目录编号:
4047
目录名称:
OPS 1127 (DMSP 4B F3)
国际标识:
1969-062A
轨道中心:
EARTH
卫星名称:
OPS 1127 (DMSP 4B F3)
卫星全名:
--
卫星状态:
在轨 (已飞行20872 天)
发射日期:
1969-07-23 UTC
国别 :
美国 (US)
星等 :
--
该卫星已列入 空间交会检测服务 Space Conjunction Data Service (SCDS) ,当前飞行风险评估等级: 高风险
轨道信息
数据来源 国际轨道数据 AOE轨道数据
星历时间 2026-09-13T20:52:02+0800
18小时前
查看轨道信息
2026-09-13T00:00:00+0800
1天前
查看轨道信息
半长轴 7171.426km 7171.409km
偏心率 0.0043902 0.0044913
轨道倾角 98.413° 98.410°
近地点辐角 355.508° 358.340°
升交点赤经 108.932° 108.088°
平近点角 4.571° 209.755°
近地点 761.805km 761.063km
远地点 824.773km 825.481km
周期 100.732分钟 100.732分钟
每日圈数 14.29534 14.295391
详细信息
使用方式:
暂无
2D轨道图
3D轨道图
轨道高度分析图
轨道倾角分析图
轨道综合分析图
查看轨道综合分析图
交会数据列表
事件ID 空间交会对象 最接近时刻(TCA) 交会距离 交会风险概率(CRP) 交会风险指数(CRI) 操作
CDM_260914-160500-404706-078327
2026-09-14T
16:05:32+0000
0.519 km
远距离
1.854951E-4 高风险 0.8
CDM_260916-060300-404703-075622
2026-09-16T
06:03:33+0000
0.897 km
远距离
3.719651E-5 中风险 0.66
CDM_260911-224700-404704-234925
2026-09-11T
22:47:53+0000
1.406 km
极远距离
8.134066E-6 低风险 0.53
CDM_260908-112400-404706-113426
2026-09-08T
11:24:14+0000
1.816 km
极远距离
3.691018E-6 低风险 0.46
CDM_260914-175100-404700-829328
2026-09-14T
17:51:21+0000
1.920 km
极远距离
3.124437E-6 低风险 0.45
CDM_260915-102800-404703-910624
2026-09-15T
10:28:09+0000
2.583 km
极远距离
1.640705E-6 低风险 0.39
与全量物体交会距离演化趋势 订阅飞行安全评估服务
与全量物体交会风险概率演化趋势 订阅飞行安全评估服务